QPF
0.00 0.00 0.00 0.00 0.00 0.00 0.00 0.00 0.00 0.00 0.00 0.00 0.00 0.00 0.00 0.00 0.00 0.00 0.00 0.00 0.00 0.00 0.00 0.00 0.00 0.00 0.00 0.00 0.00 0.00 0.00 0.00 0.00 0.00 0.00 0.00 0.00 0.00
0.00 0.00 0.00 0.00 0.00 0.00 0.00 0.00 0.00 0.00 0.00 0.00 0.00 0.00 0.00 0.00 0.00 0.00 0.00 0.00 0.00 0.00 0.00 0.00 0.00 0.00 0.00 0.00 0.00 0.00 0.00 0.00 0.00 0.00 0.00 0.00 0.00 0.00
0.00 0.00 0.00 0.00 0.00 0.00 0.00 0.00 0.00 0.00 0.00 0.00 0.00 0.00 0.00 0.00 0.00 0.00 0.00 0.00 0.00 0.00 0.00 0.00 0.00 0.00 0.00 0.00 0.00 0.00 0.00 0.00 0.00 0.00 0.00 0.00 0.00 0.00
0.00 0.00 0.00 0.00 0.00 0.00 0.00 0.00 0.00 0.00 0.00 0.00 0.00 0.00 0.00 0.00 0.00 0.00 0.00 0.00 0.00 0.00 0.00 0.00 0.00 0.00 0.00 0.00 0.00 0.00 0.00 0.00 0.00 0.00 0.00 0.00 0.00 0.00
0.00 0.00 0.00 0.00 0.00 0.00 0.00 0.00 0.00 0.00 0.00 0.00 0.00 0.00 0.00 0.00 0.00 0.00 0.00 0.00 0.00 0.00 0.00 0.00 0.00 0.00 0.00 0.00 0.00 0.00 0.00 0.00 0.00 0.00 0.00 0.00 0.00 0.00
0.00 0.00 0.00 0.00 0.00 0.00 0.00 0.00 0.00 0.00 0.00 0.00 0.00 0.00 0.00 0.00 0.00 0.00 0.00 0.00 0.00 0.00 0.00 0.00 0.00 0.00 0.00 0.00 0.00 0.00 0.00 0.00 0.00 0.00 0.00 0.00 0.00 0.00
0.00 0.00 0.00 0.00 0.00 0.00 0.00 0.00 0.00 0.00 0.00 0.00 0.00 0.00 0.00 0.00 0.00 0.00 0.00 0.00 0.00 0.00 0.00 0.00 0.00 0.00 0.00 0.00 0.00 0.00 0.00 0.00 0.00 0.00 0.00 0.00 0.00 0.00
0.00 0.00 0.00 0.00 0.00 0.00 0.00 0.00 0.00 0.00 0.00 0.00 0.00 0.00 0.00 0.00 0.00 0.00 0.00 0.00 0.00 0.00 0.00 0.00 0.00 0.00 0.00 0.00 0.00 0.00 0.00 0.00 0.00 0.00 0.00 0.00 0.00 0.00
0.00 0.00 0.00 0.00 0.00 0.00 0.00 0.00 0.00 0.00 0.00 0.00 0.00 0.00 0.00 0.00 0.00 0.00 0.00 0.00 0.00 0.00 0.00 0.00 0.00 0.00 0.00 0.00 0.00 0.00 0.00 0.00 0.00 0.00 0.00 0.00 0.00 0.00
0.00 0.00 0.00 0.00 0.00 0.00 0.00 0.00 0.00 0.00 0.00 0.00 0.00 0.00 0.00 0.00 0.00 0.00 0.00 0.00 0.00 0.00 0.00 0.00 0.00 0.00 0.00 0.00 0.00 0.00 0.00 0.00 0.00 0.00 0.00 0.00 0.00 0.00
0.00 0.00 0.00 0.00 0.00 0.00 0.00 0.00 0.00 0.00 0.00 0.00 0.00 0.00 0.00 0.00 0.00 0.00 0.00 0.00 0.00 0.00 0.00 0.00 0.00 0.00 0.00 0.00 0.00 0.00 0.00 0.00 0.00 0.00 0.00 0.00 0.00 0.00
0.00 0.00 0.00 0.00 0.00 0.00 0.00 0.00 0.00 0.00 0.00 0.00 0.00 0.00 0.00 0.00 0.00 0.00 0.00 0.00 0.00 0.00 0.00 0.00 0.00 0.00 0.00 0.00 0.00 0.00 0.00 0.00 0.00 0.00 0.00 0.00 0.00 0.00
0.00 0.00 0.00 0.00 0.00 0.00 0.00 0.00 0.00 0.00 0.00 0.00 0.00 0.00 0.00 0.00 0.00 0.00 0.00 0.00 0.00 0.00 0.00 0.00 0.00 0.00 0.00 0.00 0.00 0.00 0.00 0.00 0.00 0.00 0.00 0.00 0.00 0.00
0.00 0.00 0.00 0.00 0.00 0.00 0.00 0.00 0.00 0.00 0.00 0.00 0.00 0.00 0.00 0.00 0.00 0.00 0.00 0.00 0.00 0.00 0.00 0.00 0.00 0.00 0.00 0.00 0.00 0.00 0.00 0.00 0.00 0.00 0.00 0.00 0.00 0.00
0.00 0.00 0.00 0.00 0.00 0.00 0.00 0.00 0.00 0.00 0.00 0.00 0.00 0.00 0.00 0.00 0.00 0.00 0.00 0.00 0.00 0.00 0.00 0.00 0.00 0.00 0.00 0.00 0.00 0.00 0.00 0.00 0.00 0.00 0.00 0.00 0.00 0.00
0.00 0.00 0.00 0.00 0.00 0.00 0.00 0.00 0.00 0.00 0.00 0.00 0.00 0.00 0.00 0.00 0.00 0.00 0.00 0.00 0.00 0.00 0.00 0.00 0.00 0.00 0.00 0.00 0.00 0.00 0.00 0.00 0.00 0.00 0.00 0.00 0.00 0.00
0.00 0.00 0.00 0.00 0.00 0.00 0.00 0.00 0.00 0.00 0.00 0.00 0.00 0.00 0.00 0.00 0.00 0.00 0.00 0.00 0.00 0.00 0.00 0.00 0.00 0.00 0.00 0.00 0.00 0.00 0.00 0.00 0.00 0.00 0.00 0.00 0.00 0.00
0.00 0.00 0.00 0.00 0.00 0.00 0.00 0.00 0.00 0.00 0.00 0.00 0.00 0.00 0.00 0.00 0.00 0.00 0.00 0.00 0.00 0.00 0.00 0.00 0.00 0.00 0.00 0.00 0.00 0.00 0.00 0.00 0.00 0.00 0.00 0.00 0.00 0.00
0.00 0.00 0.00 0.00 0.00 0.00 0.00 0.00 0.00 0.00 0.00 0.00 0.00 0.00 0.00 0.00 0.00 0.00 0.00 0.00 0.00 0.00 0.00 0.00 0.00 0.00 0.00 0.00 0.00 0.00 0.00 0.00 0.00 0.00 0.00 0.00 0.00 0.00
0.00 0.00 0.00 0.00 0.00 0.00 0.00 0.00 0.00 0.00 0.00 0.00 0.00 0.00 0.00 0.00 0.00 0.00 0.00 0.00 0.00 0.00 0.00 0.00 0.00 0.00 0.00 0.00 0.00 0.00 0.00 0.00 0.00 0.00 0.00 0.00 0.00 0.00
0.00 0.00 0.00 0.00 0.00 0.00 0.00 0.00 0.00 0.00 0.00 0.00 0.00 0.00 0.00 0.00 0.00 0.00 0.00 0.00 0.00 0.00 0.00 0.00 0.00 0.00 0.00 0.00 0.00 0.00 0.00 0.00 0.00 0.00 0.00 0.00 0.00 0.00
0.00 0.00 0.00 0.00 0.00 0.00 0.00 0.00 0.00 0.00 0.00 0.00 0.00 0.00 0.00 0.00 0.00 0.00 0.00 0.00 0.00 0.00 0.00 0.00 0.00 0.00 0.00 0.00 0.00 0.00 0.00 0.00 0.00 0.00 0.00 0.00 0.00 0.00
0.00 0.00 0.00 0.00 0.00 0.00 0.00 0.00 0.00 0.00 0.00 0.00 0.00 0.00 0.00 0.00 0.00 0.00 0.00 0.00 0.00 0.00 0.00 0.00 0.00 0.00 0.00 0.00 0.00 0.00 0.00 0.00 0.00 0.00 0.00 0.00 0.00 0.00
MSLP
1020.68 1020.79 1021.11 1021.27 1021.56 1021.66 1021.63 1022.05 1023.09 1024.36 1024.98 1025.20 1025.77 1025.87 1025.99 1026.46 1026.36 1026.25 1026.38 1026.39 1026.74 1026.94 1026.88 1026.86 1026.55 1026.25 1025.91 1025.60 1025.39 1025.10 1024.65 1024.21 1023.81 1023.27 1022.55 1021.77 1020.94 1020.08
1020.94 1021.23 1021.37 1021.44 1021.83 1021.93 1021.81 1021.77 1022.19 1023.02 1024.17 1024.41 1025.28 1025.62 1025.83 1026.03 1026.17 1026.21 1026.02 1026.07 1026.62 1026.80 1026.57 1026.31 1026.23 1025.91 1025.69 1025.40 1024.87 1024.78 1024.70 1023.99 1023.52 1023.00 1022.37 1021.51 1020.59 1019.78
1021.02 1021.44 1021.47 1021.76 1021.86 1022.19 1022.21 1022.08 1022.35 1022.59 1023.69 1024.53 1024.86 1025.49 1026.01 1026.17 1026.38 1026.21 1025.99 1026.05 1026.51 1026.34 1026.23 1026.00 1025.82 1025.52 1025.34 1025.05 1024.74 1024.32 1024.53 1023.76 1023.29 1022.76 1022.01 1021.13 1020.28 1019.40
1021.09 1021.27 1021.54 1021.89 1022.13 1022.33 1022.63 1022.67 1022.81 1022.67 1023.59 1024.54 1025.22 1025.53 1025.85 1026.09 1026.28 1026.37 1026.24 1025.98 1025.93 1026.05 1025.96 1025.90 1025.72 1025.33 1025.11 1024.82 1024.56 1024.35 1024.11 1023.58 1023.05 1022.33 1021.56 1020.91 1020.02 1019.09
1021.08 1021.40 1021.86 1022.21 1022.59 1022.77 1023.05 1023.19 1023.07 1023.27 1023.77 1024.48 1025.31 1025.44 1025.82 1026.08 1026.09 1026.30 1026.29 1026.12 1025.91 1025.86 1025.67 1025.60 1025.57 1025.21 1024.88 1024.58 1024.38 1024.11 1023.70 1023.13 1022.61 1021.86 1021.13 1020.33 1019.52 1018.56
1021.16 1021.43 1021.81 1022.23 1022.97 1023.18 1023.45 1023.61 1023.53 1023.81 1024.21 1024.94 1025.52 1025.77 1025.85 1026.05 1026.16 1026.68 1026.75 1026.23 1026.08 1025.95 1026.07 1025.58 1025.52 1025.15 1024.85 1024.44 1024.22 1023.85 1023.26 1022.73 1022.16 1021.52 1020.60 1019.67 1018.97 1017.99
1020.64 1021.13 1022.10 1022.51 1022.96 1023.44 1023.53 1023.97 1024.02 1024.39 1024.53 1024.87 1025.49 1025.60 1026.27 1026.39 1026.48 1026.80 1026.78 1026.59 1025.71 1026.17 1026.22 1025.81 1025.46 1025.34 1024.93 1024.43 1024.11 1023.78 1023.32 1022.62 1021.82 1020.98 1020.19 1019.33 1018.55 1017.53
1020.87 1021.71 1022.44 1023.03 1023.16 1023.49 1023.87 1024.29 1024.65 1024.69 1024.44 1024.77 1025.04 1025.60 1025.70 1026.59 1026.67 1027.04 1026.99 1026.91 1026.52 1026.03 1025.82 1025.62 1025.32 1025.34 1024.86 1024.41 1024.14 1023.75 1023.21 1022.53 1021.59 1020.61 1019.83 1018.96 1018.10 1017.23
1020.91 1021.48 1022.31 1022.76 1022.88 1023.71 1024.24 1024.14 1024.58 1024.65 1024.72 1024.55 1025.10 1025.60 1025.94 1026.58 1026.81 1027.02 1027.13 1027.00 1026.70 1026.38 1026.27 1025.81 1025.43 1025.24 1024.68 1024.25 1023.75 1023.32 1022.90 1022.38 1021.40 1020.56 1019.52 1018.58 1017.67 1016.91
1020.51 1021.35 1022.18 1022.82 1023.10 1023.48 1024.01 1024.27 1024.67 1024.65 1024.94 1024.73 1025.23 1025.72 1026.15 1026.58 1026.83 1026.78 1026.93 1026.75 1026.43 1026.25 1026.35 1026.64 1025.92 1025.46 1024.59 1024.03 1023.44 1022.98 1022.60 1022.12 1021.23 1020.34 1019.29 1018.24 1017.38 1016.57
1020.71 1021.08 1021.61 1022.63 1022.90 1023.30 1023.50 1024.19 1024.52 1025.00 1025.60 1025.63 1025.94 1026.37 1026.69 1026.91 1027.00 1027.07 1026.94 1026.88 1027.00 1026.59 1026.49 1026.69 1026.36 1026.06 1024.67 1023.80 1023.14 1022.70 1022.45 1021.72 1020.94 1020.12 1019.03 1017.91 1017.15 1016.03
1020.41 1020.93 1021.50 1022.07 1022.78 1023.27 1023.58 1023.92 1024.21 1024.93 1025.45 1025.95 1026.48 1026.70 1026.85 1026.80 1026.81 1026.86 1026.66 1026.76 1026.93 1027.01 1026.32 1026.42 1026.21 1026.07 1025.35 1023.90 1023.43 1022.74 1022.06 1021.30 1020.65 1019.66 1018.71 1017.78 1016.70 1015.59
1020.37 1020.74 1021.22 1021.77 1022.35 1022.82 1023.32 1023.70 1023.62 1024.55 1025.13 1025.82 1026.08 1026.50 1026.34 1026.31 1026.56 1026.48 1026.29 1026.16 1026.59 1026.61 1026.23 1026.25 1026.24 1026.15 1026.07 1024.77 1023.44 1022.71 1021.96 1021.01 1020.16 1019.18 1018.44 1017.40 1016.39 1015.76
1020.06 1020.38 1020.96 1021.71 1022.07 1022.52 1023.24 1023.26 1023.79 1024.17 1024.99 1025.41 1026.08 1026.15 1025.85 1025.87 1025.89 1025.75 1025.58 1025.67 1026.01 1026.09 1025.84 1025.71 1025.87 1025.80 1025.56 1025.04 1024.08 1022.59 1021.93 1020.90 1019.97 1019.27 1018.27 1016.75 1015.60 1014.76
1019.71 1020.14 1020.77 1021.38 1021.97 1022.65 1022.90 1023.74 1023.98 1024.38 1024.83 1025.62 1025.67 1025.68 1025.37 1025.20 1025.23 1025.49 1025.42 1025.40 1025.50 1025.39 1025.13 1024.99 1025.14 1025.13 1025.05 1024.85 1024.29 1022.76 1021.58 1020.26 1019.68 1019.09 1018.11 1017.09 1015.40 1014.38
1019.85 1019.97 1020.53 1021.19 1021.73 1022.26 1023.07 1023.55 1023.84 1024.02 1024.43 1024.83 1024.93 1024.79 1024.75 1024.82 1025.10 1025.47 1025.49 1025.52 1025.48 1025.26 1024.78 1024.60 1024.57 1024.67 1024.70 1024.45 1024.06 1022.91 1022.18 1021.42 1019.64 1018.84 1017.99 1017.02 1015.32 1014.56
1019.82 1020.41 1021.14 1021.61 1022.13 1022.44 1022.82 1023.08 1023.35 1023.67 1023.97 1024.19 1024.15 1024.23 1024.31 1024.45 1024.75 1024.92 1025.05 1025.34 1025.54 1025.34 1025.10 1024.76 1024.44 1024.31 1024.15 1024.04 1023.62 1022.94 1022.02 1021.23 1020.15 1018.88 1017.61 1016.63 1015.44 1014.00
1019.27 1019.92 1020.52 1020.86 1021.38 1021.89 1022.35 1022.68 1022.80 1023.01 1023.07 1023.29 1023.26 1023.39 1023.76 1024.24 1024.46 1024.42 1024.64 1025.08 1025.40 1025.38 1025.23 1024.89 1024.73 1024.37 1023.77 1022.76 1022.55 1022.70 1021.88 1021.00 1019.88 1018.80 1017.91 1016.83 1014.98 1013.50
1018.61 1019.23 1019.46 1019.78 1020.12 1020.78 1021.30 1021.71 1021.81 1021.88 1022.18 1022.34 1022.51 1022.71 1022.92 1023.42 1023.88 1024.24 1024.76 1025.08 1025.23 1025.33 1025.13 1024.87 1024.88 1024.91 1024.72 1024.46 1023.01 1022.25 1021.93 1020.66 1019.69 1018.66 1017.86 1017.08 1015.85 1013.82
1017.58 1017.92 1018.31 1018.68 1019.08 1019.50 1020.14 1020.58 1020.76 1021.00 1021.16 1021.36 1021.59 1021.86 1022.21 1022.74 1023.20 1023.88 1024.50 1024.90 1025.07 1025.22 1025.11 1024.75 1024.72 1024.87 1024.76 1024.37 1023.53 1022.13 1021.64 1021.02 1020.02 1018.95 1017.65 1016.22 1015.47 1013.70
1016.64 1016.89 1017.07 1017.36 1017.97 1018.37 1018.78 1019.28 1019.49 1019.82 1019.96 1020.46 1020.77 1021.09 1021.56 1022.13 1022.66 1023.45 1024.14 1024.50 1024.74 1024.97 1024.85 1024.49 1024.27 1024.09 1023.87 1023.38 1023.11 1022.34 1021.52 1021.04 1020.41 1019.57 1018.55 1017.26 1015.54 1013.97
1015.46 1015.60 1015.80 1016.06 1016.66 1017.22 1017.58 1017.93 1018.31 1018.76 1019.02 1019.47 1020.00 1020.41 1021.01 1021.43 1022.15 1022.99 1023.62 1024.10 1024.34 1024.46 1024.27 1023.86 1023.80 1023.68 1023.38 1023.19 1022.84 1022.23 1021.42 1020.77 1020.39 1019.56 1019.09 1018.56 1017.70 1015.84
1014.44 1014.52 1014.68 1014.88 1015.32 1015.86 1016.27 1016.59 1016.93 1017.56 1017.99 1018.44 1019.09 1019.75 1020.42 1021.09 1021.45 1022.12 1022.80 1023.19 1023.69 1024.00 1024.00 1023.91 1023.63 1023.45 1023.34 1023.10 1022.71 1022.20 1021.43 1020.71 1020.07 1019.25 1018.29 1017.65 1016.61 1015.62
Thickness
5626 5625 5621 5618 5615 5614 5613 5608 5595 5579 5573 5569 5561 5558 5552 5546 5542 5537 5532 5526 5520 5513 5508 5500 5497 5493 5489 5484 5478 5473 5467 5461 5454 5447 5441 5436 5431 5425
5613 5611 5610 5609 5605 5604 5604 5602 5597 5588 5575 5569 5560 5554 5547 5540 5534 5529 5526 5519 5512 5505 5501 5497 5491 5487 5481 5476 5474 5465 5456 5452 5445 5437 5433 5428 5422 5414
5604 5599 5600 5596 5596 5591 5591 5591 5588 5585 5570 5562 5555 5547 5538 5533 5525 5522 5518 5513 5505 5500 5494 5490 5485 5481 5475 5470 5464 5460 5447 5443 5437 5431 5426 5420 5413 5405
5592 5590 5590 5585 5582 5582 5580 5579 5576 5575 5565 5554 5546 5539 5532 5526 5519 5513 5507 5503 5500 5492 5486 5481 5476 5472 5467 5462 5457 5449 5441 5435 5430 5424 5417 5412 5403 5395
5583 5581 5576 5571 5571 5570 5569 5567 5567 5564 5555 5545 5535 5531 5524 5519 5512 5505 5500 5496 5490 5484 5480 5474 5467 5464 5460 5455 5449 5442 5435 5429 5424 5417 5411 5405 5397 5389
5570 5569 5568 5567 5563 5563 5559 5557 5556 5551 5545 5534 5525 5521 5517 5510 5504 5494 5488 5489 5484 5476 5469 5466 5459 5456 5452 5447 5440 5435 5430 5423 5416 5410 5405 5399 5392 5382
5570 5570 5562 5561 5558 5556 5552 5547 5545 5539 5534 5527 5519 5514 5503 5497 5493 5487 5483 5479 5481 5469 5463 5459 5454 5449 5445 5440 5433 5427 5421 5416 5410 5405 5398 5391 5383 5373
5566 5558 5553 5551 5552 5549 5542 5538 5532 5529 5527 5519 5514 5506 5503 5491 5486 5479 5474 5468 5463 5463 5457 5453 5450 5444 5439 5432 5426 5418 5412 5407 5404 5398 5392 5384 5374 5364
5557 5552 5546 5544 5543 5536 5532 5531 5524 5518 5516 5512 5504 5497 5492 5483 5478 5473 5468 5463 5458 5453 5449 5444 5442 5436 5432 5427 5422 5414 5407 5400 5395 5389 5384 5377 5368 5355
5552 5544 5539 5533 5532 5528 5524 5520 5512 5509 5503 5500 5494 5489 5482 5477 5471 5467 5461 5458 5455 5450 5443 5430 5433 5426 5427 5422 5417 5409 5401 5393 5387 5381 5375 5369 5361 5348
5543 5539 5536 5525 5523 5518 5518 5509 5504 5496 5489 5487 5481 5475 5470 5467 5464 5459 5454 5446 5439 5437 5436 5425 5423 5420 5419 5418 5412 5404 5393 5388 5382 5374 5367 5362 5353 5346
5537 5533 5528 5521 5516 5512 5509 5504 5499 5487 5479 5475 5468 5462 5462 5460 5457 5453 5449 5439 5432 5425 5428 5417 5413 5411 5413 5414 5402 5396 5390 5385 5378 5372 5362 5353 5347 5342
5526 5525 5521 5517 5510 5506 5501 5496 5492 5479 5474 5465 5461 5455 5456 5453 5450 5447 5443 5439 5427 5420 5421 5413 5407 5401 5392 5397 5396 5390 5384 5380 5377 5372 5363 5353 5344 5323
5520 5518 5513 5507 5501 5497 5491 5487 5478 5475 5466 5459 5453 5451 5451 5449 5444 5441 5438 5434 5426 5419 5415 5408 5399 5393 5385 5385 5383 5386 5377 5372 5369 5366 5360 5356 5349 5337
5512 5510 5503 5498 5493 5487 5483 5472 5470 5464 5458 5451 5448 5447 5446 5445 5440 5434 5430 5426 5421 5415 5409 5403 5397 5388 5379 5373 5372 5375 5375 5376 5367 5359 5354 5344 5340 5329
5498 5498 5494 5488 5484 5478 5470 5465 5462 5459 5453 5449 5445 5444 5443 5438 5433 5427 5421 5417 5412 5407 5404 5398 5391 5382 5372 5366 5363 5365 5360 5356 5362 5353 5348 5339 5334 5316
5485 5481 5477 5473 5469 5466 5462 5459 5455 5451 5447 5442 5441 5440 5437 5432 5428 5423 5416 5410 5404 5399 5394 5391 5384 5375 5369 5363 5358 5355 5354 5351 5347 5344 5344 5338 5327 5317
5477 5473 5470 5467 5463 5460 5456 5452 5448 5445 5443 5438 5438 5436 5432 5427 5422 5417 5412 5404 5396 5391 5387 5383 5376 5369 5365 5364 5356 5349 5347 5345 5343 5340 5331 5326 5327 5320
5469 5465 5466 5465 5462 5457 5452 5447 5445 5443 5438 5435 5432 5431 5428 5424 5417 5409 5402 5396 5390 5384 5380 5375 5366 5358 5346 5341 5347 5342 5339 5340 5338 5336 5327 5316 5306 5308
5462 5461 5461 5461 5457 5453 5447 5444 5442 5439 5435 5433 5430 5428 5423 5418 5411 5402 5394 5387 5382 5377 5371 5367 5361 5352 5340 5332 5335 5338 5330 5326 5324 5324 5326 5327 5317 5308
5452 5451 5454 5455 5451 5446 5444 5441 5440 5437 5434 5429 5427 5423 5419 5413 5405 5398 5390 5384 5378 5370 5365 5361 5356 5351 5345 5340 5331 5331 5328 5318 5308 5304 5300 5298 5297 5293
5443 5444 5445 5448 5446 5441 5439 5438 5437 5432 5429 5424 5420 5417 5413 5408 5401 5392 5385 5377 5372 5367 5362 5359 5354 5347 5342 5337 5332 5328 5326 5320 5310 5300 5284 5267 5245 5248
5431 5434 5436 5439 5441 5437 5436 5435 5433 5427 5423 5420 5416 5411 5407 5401 5396 5389 5381 5375 5368 5362 5358 5352 5348 5342 5337 5332 5327 5324 5323 5319 5314 5310 5301 5289 5279 5264